sat.trackr.live / text

‹ back to catalog

STARLINK-35402

NORAD 66079 · 2025-235X

PAYLOAD ACTIVE UNKNOWN

§ Identity

Operator
Country
US
Launch date
2025-10-19
Launch site
AFETR
Launch vehicle
Mass (kg)
RCS (m²)

Purposes: comms

External: N2YO · Heavens-Above · Gunter

§ Orbital elements

Epoch: 2026-09-20T21:45:49.539168Z

Period
93.85 min
Inclination
53.1600°
Eccentricity
0.0000954
Mean motion
15.34411061 rev/d
Perigee alt
462.0 km
Apogee alt
463.3 km
Semi-major
6,840.8 km
B*
5.9383e-4
RAAN
57.5428°
Arg perigee
87.6943°
Mean anomaly
272.4169°
Rev number
5,282

§ Raw data

STARLINK-354021 66079U 25235X   26263.90682337  .00019747  00000+0  59383-3 0  99902 66079  53.1600  57.5428 0000954  87.6943 272.4169 15.34411061 52825

JSON: /api/v1/satellites/66079 · /tle

For live sub-satellite position, see the globe view (requires WebGL).

§ Visibility from observer

Set your observer location to see the next 7 days of passes ≥ 10°. The values pass through the URL so the page stays shareable.

No JS? Fill the form by hand. The geolocation button needs JavaScript.